[[{"header":{"parameterUnit":"m.s-1","parameterCategory":1,"la1":30.2991,"la2":30.254,"lo1":-89.0895,"lo2":-89.0444,"dy":0.0017,"dx":0.0017,"nx":28,"ny":28,"refTime":"2024-04-11T21:00:00:Z","depth":0,"parameterNumber":2,"parameterNumberName":"U-component_of_WINDS"},"data":[0,0,0,0,0,0,0,0,0,0,0,0,0,0,0,0,0,0,0,0,0,0,0,0,0,0,0,0,0,0,0,0,0,0,0,0,0,0,0,0,0,0,0,0,0,0,0,0,0,0,0,0,0,0,0,0,0,0,3.3913,3.3914,0,3.3996,3.3997,3.3998,3.3952,3.395,3.3947,3.3945,3.4031,3.4036,3.404,0,0,0,0,0,0,0,0,0,0,0,0,0,3.3718,3.3722,3.3913,3.3914,3.3915,3.3996,3.3997,3.3998,3.3952,3.395,3.3947,3.3944,3.403,3.4035,3.404,0,0,0,0,0,0,0,0,0,0,0,0,0,3.3802,3.3723,3.3913,3.3902,3.3902,3.3996,3.3997,3.3998,3.3953,3.395,3.3946,3.3943,3.4028,3.4035,3.4041,3.4151,0,0,3.4061,3.4064,0,0,0,0,0,0,0,0,3.3797,3.3809,3.3903,3.3903,3.3903,3.396,3.396,3.405,3.3954,3.3934,3.3945,3.3941,3.4011,3.4018,3.4041,3.4155,3.4158,3.4062,3.4066,3.4069,3.4071,0,0,0,0,0,0,0,3.3792,3.3805,3.3946,3.3904,3.3905,3.3894,3.3902,3.3976,3.399,3.3935,3.3932,3.3942,3.401,3.4035,3.4043,3.4159,3.4062,3.4068,3.4072,3.4074,3.4368,3.4372,0,0,0,0,0,0,3.3786,3.3801,3.3943,3.3949,3.3841,3.39,3.3909,3.3945,3.3989,3.3993,3.3945,3.394,3.4026,3.4035,3.4046,3.4178,3.4069,3.4075,3.4079,3.4364,3.4369,3.4373,0,0,0,0,0,0,3.3782,3.3799,3.394,3.3874,3.3891,3.3907,3.3948,3.3949,3.3974,3.3997,3.3999,3.3968,3.4023,3.4037,3.4125,3.418,3.4078,3.4084,3.436,3.4366,3.4371,3.4442,0,0,0,0,0,0,3.3777,3.3798,3.3839,3.3875,3.3895,3.4017,3.3951,3.3953,3.3985,3.3979,3.4019,3.4023,3.4022,3.4115,3.4132,3.4187,3.4089,3.4355,3.4362,3.4369,3.4435,3.4449,3.4462,0,0,0,0,0,3.377,3.3856,3.3842,3.3859,3.3946,3.4021,3.4032,3.4028,3.399,3.4032,3.4047,3.4021,3.4171,3.4125,3.4143,3.4201,3.4351,3.436,3.4369,3.4429,3.4447,3.4462,0,0,0,0,0,0,3.3826,3.386,3.3845,3.3945,3.398,3.4013,3.4065,3.4047,3.4095,3.4087,3.4081,3.4091,3.4183,3.4201,3.4148,3.431,3.4255,3.4268,3.4295,3.4312,3.4326,3.4319,3.4095,0,0,0,0,0,3.385,3.3907,3.3934,3.402,3.4038,3.4049,3.4081,3.4076,3.4112,3.4127,3.4148,3.4185,3.4241,3.4277,3.433,3.4437,3.4446,3.4486,3.45,3.4511,3.4522,3.4581,3.46,3.4401,3.4401,3.4401,0,0,3.3901,3.3926,3.3963,3.4032,3.4059,3.4119,3.4062,3.4127,3.4172,3.4137,3.4222,3.4239,3.428,3.4379,3.4423,3.4397,3.4579,3.4522,3.4531,3.4536,3.4592,3.4611,3.4628,3.4407,3.4406,3.4405,0,0,3.4023,3.4048,3.4123,3.4151,3.4192,3.4198,3.4217,3.4252,3.4262,3.4347,3.4323,3.4376,3.4471,3.4502,3.453,3.4665,3.4644,3.4683,3.4754,3.4812,3.4827,3.4841,3.489,3.4908,3.4693,3.4694,3.4694,0,3.4081,3.4169,3.4163,3.4231,3.4263,3.4234,3.431,3.4338,3.4394,3.4417,3.4386,3.4506,3.4532,3.4638,3.4671,3.4694,3.4715,3.4678,3.4825,3.4839,3.4852,3.4899,3.4917,3.4698,3.4698,3.4697,3.4697,0,3.4238,3.43,3.4356,3.4411,3.4449,3.452,3.4526,3.4566,3.4557,3.4568,3.4655,3.4685,3.4743,3.4768,3.476,3.4874,3.4856,3.4825,3.477,3.4876,3.492,3.4937,3.4705,3.4703,3.4702,3.47,0,0,3.4398,3.445,3.447,3.4495,3.4539,3.4587,3.4658,3.4715,3.4749,3.4789,3.4849,3.4931,3.4904,3.4936,3.4931,3.4982,3.5089,3.4946,3.4947,3.4972,3.5217,3.524,3.526,3.5075,3.5078,3.5081,3.5214,0,3.4524,3.4647,3.4645,3.4759,3.4817,3.4791,3.4853,3.4887,3.4899,3.4951,3.4964,3.5022,3.4981,3.5,3.5049,3.5066,3.5138,3.5056,3.5132,3.5134,3.5122,3.5283,3.5307,3.5431,3.5231,3.5234,3.5236,0,3.4687,3.4732,3.4853,3.4889,3.4913,3.4969,3.5022,3.5071,3.5109,3.5114,3.5151,3.5139,3.5212,3.5155,3.5256,3.52,3.5231,3.5244,3.5249,3.5256,3.5191,3.5295,3.547,3.5489,3.5262,3.526,3.5258,0,3.4792,3.4884,3.4968,3.499,3.5034,3.5074,3.5095,3.513,3.5165,3.5211,3.5234,3.5288,3.5318,3.536,3.5364,3.5322,3.5466,3.5409,3.5473,3.5473,3.5505,3.5503,3.5688,3.5524,3.5524,3.5524,3.5523,0,3.4933,3.5008,3.5016,3.5068,3.5151,3.5148,3.5232,3.5248,3.528,3.5336,3.5317,3.5369,3.537,3.5424,3.5428,3.5511,3.5525,3.5532,3.5532,3.5534,3.5533,3.5554,3.5546,3.5529,3.5528,3.5527,3.5526,0,3.5064,3.5073,3.5163,3.5198,3.5208,3.5269,3.5299,3.5349,3.5359,3.543,3.5446,3.5463,3.5525,3.5533,3.5606,3.5608,3.571,3.57,3.5696,3.5695,3.5759,3.5753,3.5964,3.5992,3.581,3.5812,3.5813,0,3.5154,3.5211,3.5252,3.5288,3.531,3.5368,3.5403,3.5403,3.5441,3.549,3.5534,3.5595,3.5644,3.5746,3.5765,3.5821,3.5813,3.5883,3.5821,3.5822,3.5815,3.5811,3.5818,3.5895,3.5897,3.5899,3.59,0,3.5312,3.5314,3.5365,3.5419,3.5462,3.5504,3.5543,3.5574,3.5579,3.5623,3.5686,3.5724,3.5799,3.586,3.5916,3.5938,3.5921,3.5919,3.5937,3.594,3.5936,3.5939,3.573,3.5914,3.5913,3.5912,3.5911,3.5911,3.5426,3.5476,3.5513,3.5571,3.5601,3.5639,3.5688,3.5704,3.5757,3.5818,3.5815,3.5886,3.5924,3.5997,3.6023,3.6079,3.6056,3.6082,3.6088,3.6095,3.6102,3.5927,3.6089,3.6089,3.6088,3.6088,3.6088,0,3.5583,3.5606,3.566,3.5716,3.5762,3.5742,3.5785,3.5825,3.5888,3.5925,3.5973,3.6047,3.6107,3.6131,3.6189,3.6229,3.6223,3.6245,3.6242,3.6247,3.6119,3.6097,3.6249,3.6249,3.6249,3.6249,3.6249,3.6249,3.5671,3.5754,3.5761,3.5859,3.5882,3.5951,3.5977,3.6012,3.6042,3.6126,3.6175,3.619,3.6222,3.6283,3.6337,3.6343,3.6365,3.6391,3.6393,3.6273,3.6256,3.6241,3.6221,3.6396,3.6396,3.6517,3.6519,3.6519]},{"header":{"parameterUnit":"m.s-1","parameterCategory":1,"la1":30.2991,"la2":30.254,"lo1":-89.0895,"lo2":-89.0444,"dy":0.0017,"dx":0.0017,"nx":28,"ny":28,"refTime":"2024-04-11T21:00:00:Z","depth":0,"parameterNumber":3,"parameterNumberName":"V-component_of_WINDS"},"data":[0,0,0,0,0,0,0,0,0,0,0,0,0,0,0,0,0,0,0,0,0,0,0,0,0,0,0,0,0,0,0,0,0,0,0,0,0,0,0,0,0,0,0,0,0,0,0,0,0,0,0,0,0,0,0,0,0,0,-4.4341,-4.4343,0,-4.448,-4.4481,-4.4483,-4.4437,-4.4434,-4.4431,-4.4428,-4.4574,-4.458,-4.4587,0,0,0,0,0,0,0,0,0,0,0,0,0,-4.4042,-4.4047,-4.4341,-4.4343,-4.4345,-4.4479,-4.4481,-4.4483,-4.4438,-4.4434,-4.443,-4.4427,-4.4571,-4.4579,-4.4587,0,0,0,0,0,0,0,0,0,0,0,0,0,-4.4175,-4.4049,-4.4341,-4.4338,-4.4339,-4.4479,-4.4481,-4.4484,-4.4438,-4.4434,-4.4429,-4.4425,-4.4569,-4.4579,-4.4588,-4.474,0,0,-4.4619,-4.4623,0,0,0,0,0,0,0,0,-4.4168,-4.4186,-4.4337,-4.4339,-4.434,-4.4436,-4.4429,-4.457,-4.444,-4.4401,-4.4428,-4.4423,-4.4532,-4.4545,-4.4581,-4.4747,-4.4753,-4.462,-4.4626,-4.463,-4.4633,0,0,0,0,0,0,0,-4.4158,-4.418,-4.4396,-4.4339,-4.4341,-4.4331,-4.4345,-4.4455,-4.449,-4.4404,-4.4401,-4.4418,-4.4532,-4.4571,-4.4584,-4.4756,-4.462,-4.4628,-4.4635,-4.4639,-4.5055,-4.506,0,0,0,0,0,0,-4.4148,-4.4173,-4.4392,-4.44,-4.4241,-4.434,-4.4356,-4.441,-4.4489,-4.4496,-4.4421,-4.4415,-4.4556,-4.4572,-4.4589,-4.4773,-4.463,-4.464,-4.4645,-4.505,-4.5056,-4.5061,0,0,0,0,0,0,-4.4141,-4.4168,-4.4386,-4.4286,-4.4313,-4.435,-4.4412,-4.4415,-4.4454,-4.4502,-4.4508,-4.4455,-4.4553,-4.4575,-4.4703,-4.4777,-4.4644,-4.4653,-4.5044,-4.5052,-4.5059,-4.5142,0,0,0,0,0,0,-4.4133,-4.4166,-4.4223,-4.4287,-4.4318,-4.4498,-4.4416,-4.4421,-4.4471,-4.4464,-4.4535,-4.4542,-4.4551,-4.4688,-4.4713,-4.4788,-4.4661,-4.5038,-4.5047,-4.5056,-4.5132,-4.5151,-4.5167,0,0,0,0,0,-4.4122,-4.4241,-4.4226,-4.4253,-4.439,-4.4502,-4.452,-4.4526,-4.4477,-4.4536,-4.4567,-4.454,-4.4765,-4.4702,-4.4729,-4.4809,-4.5033,-4.5045,-4.5056,-4.5125,-4.5147,-4.5166,0,0,0,0,0,0,-4.4186,-4.425,-4.4234,-4.4377,-4.4434,-4.4494,-4.4568,-4.455,-4.4624,-4.4614,-4.4621,-4.4637,-4.4769,-4.4802,-4.4731,-4.4961,-4.4892,-4.4909,-4.4935,-4.4957,-4.4974,-4.4964,-4.4669,0,0,0,0,0,-4.4217,-4.43,-4.4352,-4.4473,-4.4503,-4.453,-4.4579,-4.4579,-4.464,-4.4664,-4.4704,-4.4765,-4.4849,-4.4904,-4.4984,-4.5136,-4.5152,-4.5205,-4.5222,-4.5236,-4.5251,-4.5335,-4.536,-4.5099,-4.5099,-4.5099,0,0,-4.4281,-4.4326,-4.4379,-4.4487,-4.4532,-4.462,-4.4551,-4.4647,-4.4713,-4.4679,-4.4803,-4.4834,-4.4902,-4.5043,-4.5108,-4.5075,-4.5327,-4.525,-4.5261,-4.5269,-4.535,-4.5374,-4.5396,-4.5107,-4.5105,-4.5104,0,0,-4.4443,-4.4485,-4.4591,-4.4637,-4.4705,-4.4722,-4.4748,-4.4811,-4.483,-4.4954,-4.493,-4.5009,-4.5154,-4.5204,-4.5248,-4.5429,-4.5408,-4.5455,-4.5546,-4.5628,-4.5648,-4.5666,-4.5733,-4.5756,-4.547,-4.547,-4.547,0,-4.4515,-4.4646,-4.4648,-4.4746,-4.4795,-4.4767,-4.4875,-4.492,-4.5011,-4.5046,-4.5007,-4.5189,-4.5232,-4.5385,-4.5429,-4.5466,-4.5496,-4.5448,-4.5645,-4.5663,-4.568,-4.5743,-4.5768,-4.5475,-4.5475,-4.5474,-4.5474,0,-4.4731,-4.4822,-4.49,-4.4987,-4.5045,-4.5148,-4.5167,-4.5225,-4.5221,-4.5243,-4.537,-4.5421,-4.5512,-4.5547,-4.5544,-4.5701,-4.5678,-4.5642,-4.5573,-4.571,-4.577,-4.5794,-4.5483,-4.5481,-4.5479,-4.5478,0,0,-4.4939,-4.5026,-4.5055,-4.5094,-4.5167,-4.5238,-4.534,-4.5427,-4.5477,-4.5541,-4.5628,-4.5751,-4.5718,-4.5768,-4.577,-4.5841,-4.5983,-4.5797,-4.5798,-4.5831,-4.6161,-4.6189,-4.6216,-4.5969,-4.5974,-4.5977,-4.6155,0,-4.5108,-4.5286,-4.5292,-4.5455,-4.554,-4.5514,-4.5603,-4.5658,-4.5681,-4.5757,-4.5783,-4.5871,-4.582,-4.585,-4.592,-4.5951,-4.605,-4.5938,-4.6052,-4.6056,-4.6037,-4.6247,-4.6277,-4.6443,-4.6179,-4.6182,-4.6185,0,-4.533,-4.54,-4.5571,-4.5632,-4.5668,-4.5747,-4.5828,-4.5901,-4.5963,-4.5975,-4.6031,-4.6022,-4.6128,-4.6054,-4.6201,-4.6125,-4.6171,-4.6194,-4.62,-4.6212,-4.613,-4.6267,-4.6495,-4.6521,-4.6222,-4.6219,-4.6216,0,-4.5466,-4.5603,-4.5723,-4.5758,-4.5831,-4.5888,-4.5922,-4.5979,-4.6031,-4.6102,-4.6136,-4.6219,-4.6265,-4.6329,-4.6344,-4.6288,-4.6491,-4.6418,-4.6505,-4.6505,-4.6551,-4.6548,-4.6792,-4.6578,-4.6577,-4.6577,-4.6576,0,-4.5656,-4.5762,-4.5785,-4.586,-4.5978,-4.5984,-4.6101,-4.6131,-4.6182,-4.6263,-4.6246,-4.6322,-4.6335,-4.6415,-4.6427,-4.6547,-4.6568,-4.6582,-4.6584,-4.6584,-4.6583,-4.6616,-4.6606,-4.6584,-4.6582,-4.6581,-4.658,0,-4.5829,-4.5848,-4.5978,-4.6036,-4.6054,-4.6139,-4.619,-4.6262,-4.6282,-4.6385,-4.6409,-4.6443,-4.6536,-4.6556,-4.6666,-4.6674,-4.6818,-4.6808,-4.6797,-4.6796,-4.6883,-4.6875,-4.7158,-4.7196,-4.6956,-4.6958,-4.696,0,-4.5949,-4.603,-4.6097,-4.6149,-4.6185,-4.6269,-4.6322,-4.6331,-4.6387,-4.6464,-4.6527,-4.6618,-4.6691,-4.6841,-4.6876,-4.6961,-4.6954,-4.7047,-4.6967,-4.6965,-4.6957,-4.6953,-4.6962,-4.7063,-4.7066,-4.7068,-4.7069,0,-4.6162,-4.6167,-4.6243,-4.6324,-4.6387,-4.6451,-4.6512,-4.6556,-4.6573,-4.6637,-4.6731,-4.6788,-4.69,-4.6991,-4.7076,-4.7111,-4.7095,-4.7094,-4.7119,-4.7121,-4.7112,-4.712,-4.684,-4.7088,-4.7086,-4.7085,-4.7084,-4.7083,-4.6314,-4.6385,-4.6443,-4.6529,-4.6575,-4.6632,-4.6703,-4.6732,-4.681,-4.6901,-4.6902,-4.7005,-4.7066,-4.7178,-4.7219,-4.7301,-4.7272,-4.7308,-4.7317,-4.7326,-4.7335,-4.7097,-4.7316,-4.7316,-4.7315,-4.7315,-4.7314,0,-4.6527,-4.6562,-4.6641,-4.6726,-4.6794,-4.677,-4.6836,-4.6895,-4.6985,-4.7043,-4.7115,-4.7223,-4.7312,-4.7353,-4.7441,-4.7498,-4.7493,-4.7521,-4.7518,-4.7527,-4.7355,-4.7325,-4.7524,-4.7524,-4.7524,-4.7524,-4.7524,-4.7524,-4.6645,-4.6765,-4.6777,-4.692,-4.6955,-4.7055,-4.7095,-4.7149,-4.7194,-4.7316,-4.7389,-4.7415,-4.7467,-4.7557,-4.7638,-4.7648,-4.7682,-4.7714,-4.7721,-4.756,-4.7539,-4.7519,-4.7491,-4.7721,-4.7721,-4.7886,-4.7888,-4.7889]}]]